sat.trackr.live / text

‹ back to catalog

STARLINK-34178

NORAD 64096 · 2025-110A

PAYLOAD ACTIVE UNKNOWN

§ Identity

Operator
Country
US
Launch date
2025-05-23
Launch site
AFWTR
Launch vehicle
Mass (kg)
RCS (m²)

Purposes: comms

External: N2YO · Heavens-Above · Gunter

§ Orbital elements

Epoch: 2026-09-20T11:07:01.591104Z

Period
94.01 min
Inclination
53.1537°
Eccentricity
0.0001071
Mean motion
15.31716929 rev/d
Perigee alt
470.0 km
Apogee alt
471.4 km
Semi-major
6,848.8 km
B*
2.9565e-4
RAAN
201.3193°
Arg perigee
126.8504°
Mean anomaly
233.2596°
Rev number
7,571

§ Raw data

STARLINK-341781 64096U 25110A   26263.46321286  .00008825  00000+0  29565-3 0  99972 64096  53.1537 201.3193 0001071 126.8504 233.2596 15.31716929 75719

JSON: /api/v1/satellites/64096 · /tle

For live sub-satellite position, see the globe view (requires WebGL).

§ Visibility from observer

Set your observer location to see the next 7 days of passes ≥ 10°. The values pass through the URL so the page stays shareable.

No JS? Fill the form by hand. The geolocation button needs JavaScript.